Location: H�hm�hlbach
(49.2412°N, 7.5260°E)
Time: 22:50:37
(UTC+00:00)

Daily predictions for brighter satellites

Satellite Brightness Start Highest point End
(mag) Time Altitude Azimuth Time Altitude Azimuth Time Altitude Azimuth
Cosmos 2285 Rocket 4.1 20:10:43 10° S 20:17:03 62° ESE 20:23:23 10° NNE
Geosat 4.2 20:13:24 10° SE 20:18:22 67° NE 20:23:23 10° NNW
Cosmos 1371 Rocket 4.3 20:13:33 10° SSW 20:18:44 76° WNW 20:23:57 10° NNE
SL-16 R/B 2.5 20:14:07 10° S 20:19:32 49° ESE 20:25:00 10° NE
Spot 2 Rocket 3.8 20:15:59 10° SSE 20:20:56 58° ENE 20:25:55 10° N
Cosmos 1420 Rocket 4.0 20:16:36 10° SSW 20:21:44 70° ESE 20:26:57 10° NNE
Meteor 1-21 4.2 20:17:05 10° S 20:22:43 74° E 20:28:21 10° NNE
Lacrosse 5 2.0 20:17:47 10° WNW 20:22:50 68° SW 20:27:52 10° SE
Cosmos 2360 Rocket 3.3 20:18:24 10° SSE 20:22:54 25° ESE 20:27:24 10° NE
Cosmos 2322 Rocket 2.7 20:17:54 10° S 20:23:12 41° ESE 20:28:32 10° NE
ATLAS 3B R/B 4.2 20:20:10 10° SE 20:23:18 14° ESE 20:26:29 10° ENE
Cosmos 1470 3.1 20:20:56 10° NNW 20:24:55 71° W 20:28:50 10° S
Cosmos 1378 Rocket 3.8 20:21:02 10° SSW 20:25:22 76° W 20:29:46 10° N
Cosmos 2278 4.5 20:21:32 10° SW 20:27:09 59° WNW 20:32:47 10° NNE
Terra 2.9 20:23:28 10° SE 20:27:41 33° ENE 20:31:56 10° N
Genesis I 3.4 20:25:06 10° SSW 20:28:50 50° ESE 20:32:41 10° NE
SPOT 3 Rocket 4.0 20:24:21 10° S 20:29:27 63° WSW 20:34:37 10° NNW
Cosmos 1315 Rocket 3.1 20:25:50 10° NNW 20:30:00 74° W 20:34:06 10° S
ERS-1 Rocket 3.5 20:25:15 10° SE 20:30:04 48° ENE 20:34:56 10° N
Cosmos 220 Rocket 4.0 20:28:08 10° SSW 20:32:27 88° WNW 20:36:45 10° NNE
Meteor 2-20 4.5 20:26:24 10° S 20:32:30 78° E 20:38:36 10° NNE
Cosmos 1741 Rocket 4.2 20:31:47 10° NNW 20:37:02 64° ENE 20:42:13 10° SE
Cosmos 1980 Rocket 3.7 20:37:05 10° WSW 20:42:24 41° NW 20:47:44 10° NNE
USA 215 4.1 20:38:14 10° ENE 20:43:29 25° SE 20:48:43 10° S
Cosmos 2278 Rocket 4.4 20:40:09 10° N 20:43:52 17° NE 20:47:34 10° ENE
Cosmos 1674 3.1 20:41:31 10° SSE 20:45:03 43° E 20:48:35 10° NNE
Cosmos 1459 Rocket 4.2 20:39:25 10° N 20:45:26 58° ENE 20:51:15 11° SSE
Okean 2 4.2 20:41:36 10° SSW 20:45:36 52° WNW 20:49:38 10° N
Resurs 01 Rocket 3.1 20:42:48 10° SSW 20:46:47 33° W 20:50:48 10° NNW
Cosmos 1758 3.7 20:43:41 10° NNW 20:47:37 62° W 20:51:32 10° S
USA 238 DEB 3.8 20:41:40 10° SW 20:48:15 81° NW 20:55:14 10° NE
USA 238 3.8 20:41:46 10° SW 20:48:21 82° NW 20:55:20 10° NE
Cosmos 1300 4.5 20:46:06 10° NNE 20:48:57 19° ENE 20:51:46 10° ESE
USA 81 4.4 20:51:59 10° N 20:57:14 65° W 21:02:26 10° S
CARTOSAT-1 3.7 20:54:30 10° S 20:58:48 72° WSW 21:03:08 10° NNW
Cosmos 1844 Rocket 2.8 20:53:45 10° NNW 20:59:27 71° ENE 21:04:26 14° SE
Lacrosse 5 rocket 2.6 20:59:58 15° SSE 21:01:02 16° SE 21:03:22 10° E
Cosmos 1025 Rocket 3.6 20:57:16 12° SSE 21:01:03 42° E 21:05:12 10° NNE
CENTAUR R/B 3.0 20:57:35 10° SW 21:03:39 72° NW 21:10:59 10° NE
Cosmos 1908 3.2 21:00:44 10° N 21:04:38 79° E 21:07:53 14° SSE
Cosmos 1726 4.1 21:01:39 10° NW 21:04:39 24° W 21:07:38 10° SW
Cosmos 1975 Rocket 3.0 21:02:34 10° S 21:06:55 88° E 21:11:21 10° N
SL-8 R/B 3.7 21:03:22 10° W 21:08:09 70° SSW 21:12:54 10° ESE
Meteor 2-11 Rocket 4.5 21:04:33 10° N 21:10:43 79° E 21:16:10 13° SSE
Cosmos 2263 Rocket 4.0 21:06:54 10° NW 21:11:27 25° WSW 21:15:59 10° SSW
Cosmos 1707 4.2 21:10:05 10° SW 21:13:42 37° WNW 21:17:20 10° N
Cosmos 1340 3.6 21:11:35 17° SSE 21:13:53 32° E 21:17:16 10° NNE
Cosmos 2123 Rocket 4.3 21:08:51 12° SSE 21:14:22 51° E 21:20:28 10° NNE
Cosmos 1953 2.6 21:12:27 10° NNW 21:16:31 69° W 21:20:00 13° S
Cosmos 1110 Rocket 4.1 21:13:13 10° S 21:18:17 59° ESE 21:23:25 10° NNE
USA 267 3.8 21:12:32 10° E 21:18:58 61° NNE 21:25:24 10° WNW
CZ-4B DEB 4.2 21:20:12 20° SSE 21:22:18 84° ENE 21:25:29 10° NNW
Cosmos 2100 Rocket 4.2 21:16:03 10° NNW 21:22:26 73° W 21:28:26 11° S
Cosmos 1461 2.9 21:18:47 10° NW 21:23:04 75° SW 21:25:52 19° SSE
GEOS 3 Rocket 4.0 21:19:40 12° ESE 21:24:34 65° NE 21:29:51 10° NW
ARIANE 5 R/B 3.6 21:20:34 10° S 21:24:46 42° W 21:29:02 10° NNW
Cosmos 2333 Rocket 2.9 21:21:56 15° SSE 21:26:06 36° ESE 21:31:18 10° NE
NOSS 8 (A) 4.1 21:23:17 10° SW 21:26:34 81° NW 21:29:29 10° NE
SL-14 R/B 3.6 21:26:32 18° SSE 21:29:17 52° E 21:33:13 10° NNE
Cosmos 968 Rocket 4.3 21:24:49 10° NNW 21:29:40 41° ENE 21:33:36 15° SE
Cosmos 405 3.0 21:30:46 10° N 21:34:14 64° ENE 21:36:09 24° SSE
Cosmos 1452 Rocket 4.3 21:33:47 10° SW 21:38:56 53° WNW 21:44:08 10° NNE
Aureole 1 Rocket 4.2 21:33:36 10° NNW 21:39:08 66° WSW 21:44:46 17° S
Cosmos 1844 3.7 21:34:22 10° NNW 21:39:56 73° WSW 21:43:57 19° SSE
ATLAS CENTAUR R/B 1.7 21:37:03 10° NW 21:41:20 70° NE 21:44:31 19° SE
SL-24 R/B 4.4 21:37:38 10° N 21:42:33 71° E 21:45:59 19° S
Meteor 1-24 Rocket 4.1 21:40:46 19° SSE 21:44:12 45° E 21:49:24 10° NNE
Cosmos 2219 Rocket 2.7 21:41:31 18° S 21:45:24 43° ESE 21:50:45 10° NE
Cosmos 2016 Rocket 4.1 21:40:14 10° NNW 21:46:20 76° W 21:51:12 17° S
Cosmos 1544 Rocket 4.2 21:43:53 10° NNW 21:48:14 53° W 21:51:34 16° SSW
SPOT 5 4.0 21:43:58 11° SSW 21:48:32 39° W 21:53:12 10° NNW
Cosmos 1900 4.3 21:44:55 10° NW 21:49:50 74° SW 21:52:55 22° SSE
Cosmos 1606 Rocket 4.5 21:48:59 10° N 21:53:10 38° ENE 21:55:43 20° SE
Cosmos 1626 2.8 21:50:10 13° SSW 21:53:19 52° WNW 21:56:57 10° N
ALOS 2 4.1 21:50:57 14° ESE 21:53:50 26° ENE 21:57:30 10° N
Cosmos 1725 Rocket 4.1 21:50:49 10° NNW 21:56:59 74° W 22:01:41 18° S
Meteor 2-10 Rocket 3.7 21:53:43 10° N 21:58:48 59° ENE 22:01:54 23° SSE
Cosmos 2237 Rocket 3.8 21:57:16 15° ESE 21:59:11 18° E 22:02:50 10° ENE
H-2A R/B 3.8 21:55:11 10° N 21:59:15 64° WNW 22:02:41 14° SSW
BREEZE-M DEB (TANK) 3.2 21:59:42 10° WSW 22:02:41 79° SSE 22:11:01 10° ENE
SL-16 R/B 3.8 21:58:40 10° WSW 22:03:51 35° NW 22:09:02 10° NNE
BREEZE-M DEB (TANK) 4.0 21:55:11 10° SW 22:04:52 32° SSE 22:08:21 10° E
Lacrosse 5 3.9 22:02:11 10° W 22:05:01 15° WSW 22:07:23 11° SSW
Terra 3.0 22:01:47 14° SSW 22:05:23 35° W 22:09:47 10° NNW
Cosmos 2360 Rocket 2.7 22:00:52 10° SW 22:06:28 62° WNW 22:12:06 10° NNE
FALCON 9 DEB 2.9 22:03:36 10° WSW 22:07:01 72° SSE 22:10:25 10° ENE
Cosmos 1331 Rocket 4.4 22:01:51 10° SW 22:07:03 64° WNW 22:12:20 10° NNE
Cosmos 2322 Rocket 3.6 22:01:55 10° WSW 22:07:17 40° NW 22:12:41 10° NNE
ATLAS 3B R/B 2.6 22:06:13 10° SSW 22:12:42 67° SE 22:19:25 10° NE
COSMOS 2428 2.8 22:13:36 20° S 22:17:31 61° ESE 22:23:11 10° NE
Cosmos 1455 3.2 22:14:16 10° N 22:17:52 36° ENE 22:19:32 24° ESE
Cosmos 1867 3.7 22:13:59 10° NW 22:19:30 73° NE 22:23:22 20° SE
OPS 8737 4.3 22:17:16 10° SW 22:21:10 85° NW 22:24:14 10° NE
BREEZE-M DEB (TANK) 2.3 22:18:36 10° WSW 22:21:30 70° SSE 22:28:50 10° ENE
Cosmos 2322 3.7 22:16:36 13° SSW 22:21:40 89° ESE 22:27:22 10° NNE
Cosmos 1536 Rocket 4.2 22:18:34 16° SSW 22:21:57 54° WNW 22:26:21 10° N
ATLAS CENTAUR R/B 4.2 22:21:00 19° SE 22:23:26 24° ESE 22:31:44 10° ENE
Cosmos 1302 Rocket 4.0 22:20:04 16° SSW 22:24:18 85° WNW 22:29:35 10° NNE
Cosmos 1300 3.7 22:21:11 10° NNW 22:24:44 37° W 22:26:42 21° SSW
USA 215 3.2 22:20:38 10° ENE 22:27:12 76° SE 22:33:45 10° SW
DNEPR-1 R/B 3.9 22:24:24 10° NW 22:28:28 47° WSW 22:30:15 29° S
Cosmos 1346 Rocket 2.8 22:27:17 32° S 22:29:02 72° E 22:33:03 10° NNE
Cosmos 2278 Rocket 2.4 22:23:27 10° NNW 22:29:07 65° ENE 22:32:55 21° SE
Meteor 2-5 Rocket 4.1 22:30:32 16° SSW 22:35:00 60° WNW 22:40:34 10° N
Cosmos 389 Rocket 2.4 22:32:16 10° NNW 22:35:41 77° W 22:36:46 41° S
Lacrosse 5 rocket 1.0 22:36:03 10° WSW 22:39:41 82° NNW 22:43:17 10° NE
Cosmos 1844 Rocket 4.4 22:38:34 10° NW 22:42:47 22° W 22:46:06 13° SW
Uosat 12 SS-18 rocket 4.2 22:41:41 26° SSW 22:44:08 68° SE 22:49:10 10° NE
Okean 1-7 Rocket 4.4 22:44:49 27° SE 22:46:35 37° E 22:50:42 10° NNE
FALCON 9 DEB 3.1 22:47:10 48° SE 22:47:10 48° SE 22:49:54 10° ENE
Cosmos 2228 3.5 22:42:39 10° NNW 22:46:58 54° W 22:49:02 28° SSW
Spot 4 4.0 22:44:45 28° S 22:47:11 62° WSW 22:51:56 10° NNW
FALCON 9 DEB 3.7 22:48:39 34° ESE 22:48:39 34° ESE 22:50:54 10° ENE
Meteor 2-1 Rocket 4.3 22:46:59 10° N 22:52:29 67° ENE 22:55:36 26° SSE
Cosmos 1486 Rocket 4.2 22:48:46 10° NNW 22:53:54 58° WSW 22:56:26 29° S
FALCON 9 DEB 2.9 22:55:40 55° SE 22:55:40 55° SE 22:58:39 10° ENE
Cosmos 1703 3.7 23:00:14 34° SE 23:01:28 48° E 23:05:17 10° NNE
USA 267 3.3 22:57:24 21° SE 23:02:00 63° SW 23:08:30 10° WNW
COBE Rocket 4.1 22:59:36 29° S 23:02:09 65° W 23:07:07 10° NNW
Cosmos 2058 Rocket 3.0 23:00:11 10° N 23:04:41 88° W 23:06:34 35° S
Cosmos 1354 Rocket 4.0 23:00:41 10° NNW 23:06:04 88° WSW 23:08:53 29° SSE
Cosmos 1980 3.8 23:05:28 28° S 23:08:24 62° ESE 23:14:02 10° NE
Cosmos 1441 Rocket 3.6 23:07:22 37° SSE 23:08:30 51° E 23:12:15 10° NNE
Cosmos 2333 Rocket 3.2 23:04:46 10° SW 23:10:17 46° NW 23:15:48 10° NNE
GP-B 4.0 23:09:19 10° NNE 23:13:29 38° E 23:15:26 25° SE
Cosmos 1992 Rocket 4.1 23:11:12 23° SSW 23:14:27 75° WNW 23:19:43 10° NNE
Cosmos 1726 Rocket 4.4 23:13:11 10° NNW 23:17:25 41° W 23:19:18 27° SW
Cosmos 1943 Rocket 3.4 23:12:54 10° NNW 23:18:00 36° NE 23:23:03 10° ESE
ATLAS CENTAUR R/B 3.2 23:16:45 10° WNW 23:19:51 19° WSW 23:20:38 18° SW
Cosmos 1184 Rocket 3.0 23:27:00 43° SW 23:27:47 59° WNW 23:31:01 10° N
Cosmos 2219 Rocket 3.4 23:24:08 10° WSW 23:29:26 39° NW 23:34:45 10° NNE
ALOS 2 3.4 23:28:20 28° SW 23:30:00 39° W 23:34:09 10° NNW
MTI 3.9 23:29:04 10° N 23:32:05 61° WNW 23:32:42 47° SW
EO 1 Del DPAF 4.3 23:30:49 10° NNE 23:34:09 31° E 23:35:10 26° SE
NOSS 0 Rocket 4.0 23:30:01 20° SW 23:34:28 78° WNW 23:40:46 10° NNE
Cosmos 1892 Rocket 4.4 23:32:13 24° SW 23:34:30 44° WNW 23:38:47 10° N
SL-16 R/B 3.0 23:34:20 25° SSE 23:36:48 36° ESE 23:41:57 10° NE
Resurs 1-4 Rocket 4.4 23:35:52 10° ENE 23:38:22 13° E 23:40:52 10° ESE
SAR-Lupe-2 3.9 23:35:48 10° N 23:39:20 60° WNW 23:40:35 36° SW
SJ 16-02 2.1 23:35:41 10° NNW 23:39:56 46° ENE 23:42:46 19° SE
Cosmos 2237 Rocket 2.2 23:39:03 24° SSW 23:42:31 82° WNW 23:48:12 10° NNE
CZ-2D R/B 4.3 23:40:43 10° ENE 23:43:19 14° E 23:45:54 10° ESE
FALCON 9 DEB 4.2 23:40:44 10° W 23:44:03 45° N 23:47:21 10° ENE
Meteor 1-21 Rocket 4.5 23:45:48 25° SSW 23:49:06 62° WNW 23:54:47 10° N
Cosmos 192 4.4 23:49:09 27° SW 23:51:50 72° WNW 23:56:48 10° NNE
PSLV R/B 3.5 23:48:14 10° NNE 23:52:32 76° ESE 23:54:21 34° S
Cosmos 2369 Rocket 3.6 23:47:28 10° NNW 23:52:46 37° NE 23:58:02 10° ESE
Cosmos 1455 4.0 23:50:25 10° NW 23:53:12 19° W 23:54:24 17° WSW
USA 32 4.0 23:49:00 10° N 23:54:16 80° W 23:56:56 30° S
